Location: Unspecified
(0.0000°N, 0.0000°E)
Time: 15:46:09
(UTC+00:00)

Envisat - Pass Details

Date: 11 December 2018
Orbit: 764 x 766 km, 98.2° (Epoch: 13 December)

Event Time Altitude Azimuth Distance (km) Brightness Sun altitude
Rises 19:12:15 0° 166° (SSE) 3,231 6.4 -18.1°
Reaches altitude 10° 19:14:34 10° 165° (SSE) 2,302 5.6 -18.6°
Maximum altitude 19:19:39 81° 78° (ENE) 776 2.9 -19.8°
Drops below altitude 10° 19:24:42 10° 351° (N) 2,291 5.3 -20.9°
Sets 19:26:59 0° 350° (N) 3,214 6.1 -21.4°
